EHI
0 0 0 0 0 0 0 0 0 0 0 0 0 0 0 0 0 0 0 0 0 0 0 0 0 0 0 0 0 0 0 0 0 0 0 0 0 0 0 0 0 0 0 0
0 0 0 0 0 0 0 0 0 0 0 0 0 0 0 0 0 0 0 0 0 0 0 0 0 0 0 0 0 0 0 0 0 0 0 0 0 0 0 0 0 0 0 0
0 0 0 0 0 0 0 0 0 0 0 0 0 0 0 0 0 0 0 0 0 0 0 0 0 0 0 0 0 0 0 0 0 0 0 0 0 0 0 0 0 0 0 0
0 0 0 0 0 0 0 0 0 0 0 0 0 0 0 0 0 0 0 0 0 0 0 0 0 0 0 0 0 0 0 0 0 0 0 0 0 0 0 0 0 0 0 0
0 0 0 0 0 0 0 0 0 0 0 0 0 0 0 0 0 0 0 0 0 0 0 0 0 0 0 0 0 0 0 0 0 0 0 0 0 0 0 0 0 0 0 0
0 0 0 0 0 0 0 0 0 0 0 0 0 0 0 0 0 0 0 0 0 0 0 0 0 0 0 0 0 0 0 0 0 0 0 0 0 0 0 0 0 0 0 0
0 0 0 0 0 0 0 0 0 0 0 0 0 0 0 0 0 0 0 0 0 0 0 0 0 0 0 0 0 0 0 0 0 0 0 0 0 0 0 0 0 0 0 0
0 0 0 0 0 0 0 0 0 0 0 0 0 0 0 0 0 0 0 0 0 0 0 0 0 0 0 0 0 0 0 0 0 0 0 0 0 0 0 0 0 0 0 0
0 0 0 0 0 0 0 0 0 0 0 0 0 0 0 0 0 0 0 0 0 0 0 0 0 0 0 0 0 0 0 0 0 0 0 0 0 0 0 0 0 0 0 0
0 0 0 0 0 0 0 0 0 0 0 0 0 0 0 0 0 0 0 0 0 0 0 0 0 0 0 0 0 0 0 0 0 0 0 0 0 0 0 0 0 0 0 0
0 0 0 0 0 0 0 0 0 0 0 0 0 0 0 0 0 0 0 0 0 0 0 0 0 0 0 0 0 0 0 0 0 0 0 0 0 0 0 0 0 0 0 0
0 0 0 0 0 0 0 0 0 0 0 0 0 0 0 0 0 0 0 0 0 0 0 0 0 0 0 0 0 0 0 0 0 0 0 0 0 0 0 0 0 0 0 0
0 0 0 0 0 0 0 0 0 0 0 0 0 0 0 0 0 0 0 0 0 0 0 0 0 0 0 0 0 0 0 0 0 0 0 0 0 0 0 0 0 0 0 0
0 0 0 0 0 0 0 0 0 0 0 0 0 0 0 0 0 0 0 0 0 0 0 0 0 0 0 0 0 0 0 0 0 0 0 0 0 0 0 0 0 0 0 0
0 0 0 0 0 0 0 0 0 0 0 0 0 0 0 0 0 0 0 0 0 0 0 0 0 0 0 0 0 0 0 0 0 0 0 0 0 0 0 0 0 0 0 0
0 0 0 0 0 0 0 0 0 0 0 0 0 0 0 0 0 0 0 0 0 0 0 0 0 0 0 0 0 0 0 0 0 0 0 0 0 0 0 0 0 0 0 0
0 0 0 0 0 0 0 0 0 0 0 0 0 0 0 0 0 0 0 0 0 0 0 0 0 0 0 0 0 0 0 0 0 0 0 0 0 0 0 0 0 0 0 0
0 0 0 0 0 0 0 0 0 0 0 0 0 0 0 0 0 0 0 0 0 0 0 0 0 0 0 0 0 0 0 0 0 0 0 0 0 0 0 0 0 0 0 0
0 0 0 0 0 0 0 0 0 0 0 0 0 0 0 0 0 0 0 0 0 0 0 0 0 0 0 0 0 0 0 0 0 0 0 0 0 0 0 0 0 0 0 0
0 0 0 0 0 0 0 0 0 0 0 0 0 0 0 0 0 0 0 0 0 0 0 0 0 0 0 0 0 0 0 0 0 0 0 0 0 0 0 0 0 0 0 0
0 0 0 0 0 0 0 0 0 0 0 0 0 0 0 0 0 0 0 0 0 0 0 0 0 0 0 0 0 0 0 0 0 0 0 0 0 0 0 0 0 0 0 0
0 0 0 0 0 0 0 0 0 0 0 0 0 0 0 0 0 0 0 0 0 0 0 0 0 0 0 0 0 0 0 0 0 0 0 0 0 0 0 0 0 0 0 0
0 0 0 0 0 0 0 0 0 0 0 0 0 0 0 0 0 0 0 0 0 0 0 0 0 0 0 0 0 0 0 0 0 0 0 0 0 0 0 0 0 0 0 0
0 0 0 0 0 0 0 0 0 0 0 0 0 0 0 0 0 0 0 0 0 0 0 0 0 0 0 0 0 0 0 0 0 0 0 0 0 0 0 0 0 0 0 0
0 0 0 0 0 0 0 0 0 0 0 0 0 0 0 0 0 0 0 0 0 0 0 0 0 0 0 0 0 0 0 0 0 0 0 0 0 0 0 0 0 0 0 0
0 0 0 0 0 0 0 0 0 0 0 0 0 0 0 0 0 0 0 0 0 0 0 0 0 0 0 0 0 0 0 0 0 0 0 0 0 0 0 0 0 0 0 0
0 0 0 0 0 0 0 0 0 0 0 0 0 0 0 0 0 0 0 0 0 0 0 0 0 0 0 0 0 0 0 0 0 0 0 0 0 0 0 0 0 0 0 0
Wind_Speed
1 1 2 4 6 8 8 6 5 3 2 5 5 5 4 4 4 4 5 5 4 3 2 3 3 4 4 4 5 5 5 6 6 6 6 7 7 8 9 9 10 9 9 9
2 3 3 5 7 9 9 10 8 6 6 3 2 3 3 3 4 4 5 5 5 4 3 3 3 3 4 4 4 5 5 5 5 6 6 7 7 8 8 9 9 9 9 9
2 2 2 8 12 13 10 7 9 10 7 3 3 3 3 2 3 4 5 6 5 4 4 4 4 4 4 4 5 5 5 5 5 5 6 6 7 8 8 8 8 8 8 8
2 1 6 4 1 5 9 10 9 6 4 3 1 1 1 2 2 4 6 5 5 5 4 4 4 4 4 4 5 5 5 5 5 5 6 6 7 7 7 6 6 6 7 7
2 4 7 4 4 3 4 5 9 9 6 2 2 0 1 3 4 5 6 5 5 5 5 4 4 4 4 5 5 5 5 5 5 5 5 5 6 6 5 5 6 5 5 6
2 3 4 1 4 2 1 3 3 6 5 4 3 2 2 5 6 6 6 5 5 5 5 5 4 4 5 5 5 5 4 5 5 5 5 5 5 5 4 4 4 4 4 4
4 4 5 2 5 3 2 1 4 4 3 3 2 1 5 6 6 6 6 6 6 5 4 4 4 5 5 5 4 4 4 4 4 4 4 4 4 3 3 3 4 3 4 4
5 5 6 5 5 3 2 3 3 3 3 2 3 4 5 6 6 7 6 6 5 5 4 4 4 5 6 5 4 4 4 4 4 3 3 4 4 3 2 3 3 2 3 3
5 5 2 4 3 3 3 2 1 2 2 2 3 3 4 5 6 7 6 6 5 6 5 4 4 5 6 5 4 4 4 4 4 3 3 3 3 2 1 1 2 1 2 2
3 3 4 5 3 2 2 1 1 2 1 2 2 3 4 5 6 6 7 6 6 6 6 5 5 5 5 6 5 5 5 4 3 3 3 2 2 2 2 2 2 2 2 2
5 4 2 3 3 3 3 3 2 1 1 2 2 3 4 5 6 6 6 7 7 7 7 7 6 6 6 6 6 5 5 4 3 3 3 3 3 2 3 2 3 2 1 1
4 2 3 3 4 4 4 2 2 1 1 1 2 3 3 4 5 6 7 7 7 7 7 7 7 6 6 6 6 6 5 4 3 3 3 3 3 2 4 3 3 3 2 1
1 2 3 4 4 3 2 2 1 1 1 2 2 2 3 4 5 6 7 8 8 8 7 7 7 7 6 6 6 5 5 4 3 3 3 2 2 2 1 1 2 2 1 1
1 2 2 3 3 3 2 2 1 1 1 1 1 2 3 3 4 6 7 8 7 7 7 8 8 7 7 7 6 5 5 5 4 3 3 3 2 2 1 1 1 2 3 4
2 1 2 4 4 4 2 1 0 1 1 1 1 2 3 4 5 6 6 6 7 7 7 8 8 8 7 7 7 6 5 4 4 3 3 3 2 2 1 1 1 1 1 3
4 3 3 3 3 2 1 1 2 2 2 2 2 3 3 3 4 4 6 7 8 9 8 8 8 7 8 8 7 5 5 7 6 4 3 3 3 2 2 2 2 2 2 2
5 4 3 2 2 2 2 2 2 2 2 3 3 3 3 3 4 4 5 6 6 6 7 7 7 7 8 8 8 5 5 6 8 4 4 4 3 3 3 3 3 3 3 3
4 3 3 2 1 1 1 2 2 3 3 3 2 3 4 5 5 5 5 5 5 5 6 6 7 8 8 8 7 5 5 5 5 5 4 4 3 3 3 3 3 4 3 3
5 4 3 2 2 1 2 2 3 3 3 2 2 3 4 4 4 3 4 6 7 7 6 7 11 9 8 9 9 5 6 6 5 4 4 6 5 4 4 4 4 4 3 3
4 3 3 2 2 2 2 3 3 2 2 1 2 2 3 3 3 4 5 6 6 4 5 7 8 8 8 9 11 6 6 7 6 5 5 5 5 5 4 5 4 4 4 4
3 3 2 2 2 2 2 3 3 3 2 1 1 2 2 2 3 3 4 5 4 4 6 10 7 6 7 8 11 6 7 7 7 6 6 6 5 5 5 5 5 4 4 4
2 2 2 2 2 2 2 3 3 3 2 2 1 1 1 1 2 3 4 3 2 5 4 5 5 8 10 11 7 7 7 7 7 6 6 6 6 5 5 5 5 5 4 4
2 2 2 2 2 2 2 3 3 3 3 2 2 1 1 2 2 3 3 2 2 5 4 4 7 11 14 9 6 7 8 8 7 7 6 6 6 6 5 6 5 5 4 4
2 2 2 2 2 2 2 3 3 2 2 2 2 2 1 1 2 2 1 2 4 6 4 6 10 12 13 6 6 6 7 7 7 6 6 5 5 5 5 5 5 5 5 5
1 1 1 1 2 1 2 2 3 3 2 2 2 2 1 1 1 2 2 3 5 5 3 6 10 12 8 5 6 6 6 6 6 6 6 6 6 6 5 5 5 5 5 5
1 1 0 0 0 1 1 1 2 2 2 2 2 2 2 1 2 2 2 3 4 5 4 3 4 7 5 5 6 6 6 6 7 7 6 6 6 6 5 5 6 5 5 5
1 1 1 1 1 1 1 1 2 2 2 2 3 2 2 2 2 2 3 3 3 3 3 3 3 4 4 4 5 5 5 5 5 5 5 6 5 5 5 6 5 5 4 4
Wind_Direction
352 20 150 203 206 199 202 208 211 252 224 187 181 179 175 157 146 147 147 143 135 127 108 92 82 75 66 58 47 54 59 54 50 49 48 50 51 51 52 54 56 55 56 56
246 227 234 244 231 216 216 224 235 260 275 255 165 138 153 162 170 177 163 148 140 137 126 105 88 82 79 72 62 65 66 62 57 59 58 58 60 60 61 60 60 62 60 61
242 175 266 254 226 216 212 206 208 227 233 208 184 183 184 178 178 171 147 141 143 141 127 111 98 88 86 85 78 74 72 67 63 64 64 63 68 66 63 62 64 66 65 64
265 222 245 238 91 192 211 221 216 225 226 197 181 112 111 131 152 142 134 138 137 129 121 114 106 99 96 93 91 85 78 75 74 74 73 70 72 71 66 65 66 67 68 69
237 257 269 225 169 170 191 232 212 217 226 212 122 42 195 109 103 117 124 125 123 124 124 117 110 109 106 98 93 89 83 79 79 82 82 78 76 74 73 75 71 67 67 68
226 252 265 95 123 125 178 249 177 181 186 164 147 213 188 129 111 111 114 115 119 119 118 118 119 117 113 103 94 88 84 85 85 88 90 88 85 83 81 84 84 81 73 70
233 248 268 138 134 139 198 159 82 99 118 136 169 154 137 133 127 126 125 124 126 127 122 123 123 117 112 105 102 100 95 93 93 92 95 97 92 89 93 93 89 83 81 73
200 225 244 144 146 183 133 96 79 79 82 94 102 109 135 144 143 142 140 139 137 132 124 116 119 121 120 123 123 116 111 106 101 97 97 95 92 86 94 102 100 89 85 71
200 211 163 155 152 119 110 114 99 89 82 109 143 170 166 162 159 158 156 152 144 140 136 130 132 137 141 146 144 137 129 125 122 117 108 109 105 94 85 84 90 81 82 80
259 238 183 177 176 163 146 141 107 105 123 158 184 181 175 172 168 165 162 158 154 154 157 160 158 154 155 154 156 149 144 143 141 131 121 107 95 73 66 59 58 61 65 59
245 250 240 206 181 157 131 112 112 111 141 180 181 191 187 182 175 169 164 161 165 170 171 168 164 161 158 159 160 154 151 151 146 138 132 113 91 72 81 77 90 89 78 57
225 215 185 158 127 117 127 135 141 154 185 193 186 199 193 188 177 170 167 165 171 176 173 167 164 164 164 166 167 163 158 160 158 150 141 138 133 103 88 120 94 80 77 46
203 61 78 110 113 110 112 98 96 185 224 231 210 199 196 187 174 170 170 173 179 179 174 168 168 170 170 169 171 168 163 163 158 155 154 153 147 148 162 188 194 197 211 275
98 129 155 155 140 118 103 88 72 269 253 231 207 193 190 186 177 178 182 182 177 173 173 173 174 177 171 167 168 168 162 164 162 163 161 161 162 164 165 177 238 260 233 238
146 112 114 107 110 111 107 113 220 248 237 228 204 207 200 197 195 191 182 172 169 173 179 179 182 181 168 166 168 170 165 167 166 159 159 161 164 171 193 212 235 253 262 255
142 122 116 125 137 144 162 213 244 258 243 234 226 220 214 209 200 185 176 172 178 188 188 185 188 180 166 166 168 171 174 175 167 163 166 171 178 191 207 220 234 246 254 249
148 167 173 181 193 204 222 242 259 269 263 247 241 225 202 199 197 191 187 187 190 191 186 186 184 170 168 172 173 174 171 177 178 172 180 183 188 199 208 215 230 240 246 253
108 113 127 136 149 258 289 289 281 274 267 259 237 205 196 199 206 202 192 182 183 191 191 183 174 168 174 177 177 174 171 174 180 186 186 190 195 201 206 217 230 241 247 260
94 91 82 67 40 335 300 294 294 284 269 252 232 217 211 209 206 196 182 184 194 205 202 184 179 176 181 186 178 173 174 176 182 187 189 205 209 206 210 218 227 234 240 243
91 84 76 60 35 350 322 319 313 304 291 259 239 223 214 211 198 192 193 205 211 206 180 178 179 182 185 188 183 179 182 185 187 190 192 198 205 211 214 219 223 230 235 241
97 86 72 54 24 2 352 340 329 321 319 296 246 235 231 218 198 193 202 223 221 192 179 185 184 186 184 187 189 186 188 191 193 195 197 203 209 213 216 220 225 231 234 240
100 85 62 38 19 10 7 1 352 345 348 345 334 311 238 219 215 221 226 229 210 191 185 189 190 194 193 190 189 189 193 196 198 197 199 203 207 213 217 219 223 230 233 236
92 72 50 27 11 357 6 15 8 1 352 340 325 302 268 251 228 228 249 241 207 210 204 204 208 207 203 194 191 194 197 200 202 201 202 203 207 210 215 219 222 226 230 235
87 65 41 17 4 360 1 358 351 342 333 326 317 306 289 275 269 244 261 250 240 235 224 220 220 217 208 197 193 197 201 204 204 202 202 203 206 209 213 217 222 226 230 237
110 97 52 11 357 346 337 333 333 333 337 332 329 329 316 273 259 273 276 262 259 253 240 231 228 223 211 197 198 201 203 206 204 200 203 204 206 209 213 215 220 225 230 235
158 180 196 239 284 314 322 322 317 318 323 322 321 316 316 312 297 287 274 265 266 262 252 235 228 224 208 201 202 203 204 212 218 212 205 205 208 209 212 216 221 224 229 234
196 215 236 259 250 249 279 290 294 301 308 307 305 302 303 301 295 289 286 277 271 260 246 233 225 219 213 207 204 203 203 204 206 205 203 204 206 209 212 215 218 222 226 234